TimeCDT,TemperatureF,Dew PointF,Humidity,Sea Level PressureIn,VisibilityMPH,Wind Direction,Wind SpeedMPH,Gust SpeedMPH,PrecipitationIn,Events,Conditions,WindDirDegrees,DateUTC
12:15 AM,44.6,32.0,61,30.16,10.0,NNE,8.1,-,N/A,,Scattered Clouds,20,2013-04-03 05:15:00
12:35 AM,44.6,32.0,61,30.14,10.0,NNE,10.4,-,N/A,,Scattered Clouds,20,2013-04-03 05:35:00
12:55 AM,44.6,30.2,57,30.15,10.0,NNE,8.1,-,N/A,,Mostly Cloudy,20,2013-04-03 05:55:00
1:15 AM,44.6,30.2,57,30.14,10.0,NNE,10.4,-,N/A,,Overcast,30,2013-04-03 06:15:00
1:55 AM,44.6,30.2,57,30.12,10.0,NNE,11.5,16.1,N/A,,Scattered Clouds,30,2013-04-03 06:55:00
2:15 AM,44.6,30.2,57,30.11,10.0,NNE,11.5,17.3,N/A,,Scattered Clouds,30,2013-04-03 07:15:00
2:35 AM,44.6,30.2,57,30.11,10.0,NE,8.1,-,N/A,,Mostly Cloudy,40,2013-04-03 07:35:00
2:55 AM,44.6,30.2,57,30.10,10.0,NE,10.4,-,N/A,,Mostly Cloudy,40,2013-04-03 07:55:00
3:15 AM,44.6,30.2,57,30.10,10.0,NNE,9.2,17.3,N/A,,Scattered Clouds,20,2013-04-03 08:15:00
3:35 AM,44.6,30.2,57,30.12,10.0,NNE,9.2,-,N/A,,Scattered Clouds,30,2013-04-03 08:35:00
3:55 AM,42.8,30.2,61,30.11,10.0,NNE,9.2,-,N/A,,Scattered Clouds,20,2013-04-03 08:55:00
4:15 AM,42.8,30.2,61,30.12,10.0,NE,8.1,-,N/A,,Scattered Clouds,40,2013-04-03 09:15:00
4:35 AM,42.8,30.2,61,30.12,10.0,NE,6.9,-,N/A,,Mostly Cloudy,50,2013-04-03 09:35:00
4:55 AM,42.8,30.2,61,30.12,10.0,NE,9.2,-,N/A,,Mostly Cloudy,40,2013-04-03 09:55:00
5:15 AM,42.8,30.2,61,30.13,10.0,NE,10.4,-,N/A,,Scattered Clouds,40,2013-04-03 10:15:00
5:35 AM,42.8,30.2,61,30.14,10.0,NE,6.9,-,N/A,,Scattered Clouds,40,2013-04-03 10:35:00
5:55 AM,42.8,30.2,61,30.14,10.0,NE,9.2,-,N/A,,Scattered Clouds,40,2013-04-03 10:55:00
6:15 AM,42.8,28.4,57,30.14,10.0,NE,6.9,-,N/A,,Clear,40,2013-04-03 11:15:00
6:35 AM,42.8,28.4,57,30.14,10.0,NE,8.1,-,N/A,,Clear,40,2013-04-03 11:35:00
6:55 AM,42.8,28.4,57,30.15,10.0,NE,9.2,-,N/A,,Clear,50,2013-04-03 11:55:00
7:15 AM,42.8,26.6,53,30.14,10.0,ENE,9.2,16.1,N/A,,Clear,60,2013-04-03 12:15:00
7:35 AM,42.8,28.4,57,30.16,10.0,ENE,6.9,-,N/A,,Clear,60,2013-04-03 12:35:00
7:55 AM,42.8,28.4,57,30.17,10.0,NE,5.8,-,N/A,,Mostly Cloudy,50,2013-04-03 12:55:00
8:15 AM,44.6,26.6,49,30.17,10.0,NE,9.2,-,N/A,,Overcast,40,2013-04-03 13:15:00
8:35 AM,44.6,26.6,49,30.17,10.0,ENE,5.8,-,N/A,,Overcast,60,2013-04-03 13:35:00
8:55 AM,44.6,26.6,49,30.17,10.0,NE,9.2,-,N/A,,Overcast,50,2013-04-03 13:55:00
9:15 AM,46.4,23.0,40,30.17,10.0,ENE,8.1,-,N/A,,Overcast,60,2013-04-03 14:15:00
9:35 AM,46.4,23.0,40,30.17,10.0,ENE,8.1,-,N/A,,Overcast,70,2013-04-03 14:35:00
9:55 AM,48.2,24.8,40,30.17,10.0,ENE,4.6,-,N/A,,Overcast,70,2013-04-03 14:55:00
10:15 AM,48.2,24.8,40,30.17,10.0,NE,9.2,17.3,N/A,,Overcast,50,2013-04-03 15:15:00
10:35 AM,50.0,24.8,37,30.16,10.0,ENE,10.4,17.3,N/A,,Overcast,60,2013-04-03 15:35:00
10:55 AM,50.0,28.4,43,30.16,10.0,ENE,6.9,17.3,N/A,Rain,Light Rain,60,2013-04-03 15:55:00
11:15 AM,51.8,28.4,41,30.17,10.0,ENE,4.6,-,N/A,,Light Drizzle,70,2013-04-03 16:15:00
11:35 AM,51.8,30.2,44,30.16,10.0,ENE,4.6,-,N/A,,Mostly Cloudy,70,2013-04-03 16:35:00
11:55 AM,53.6,30.2,41,30.15,10.0,East,8.1,18.4,N/A,,Overcast,90,2013-04-03 16:55:00
12:15 PM,53.6,30.2,41,30.16,10.0,East,11.5,-,N/A,,Overcast,90,2013-04-03 17:15:00
12:35 PM,53.6,30.2,41,30.17,10.0,East,5.8,-,N/A,,Overcast,90,2013-04-03 17:35:00
12:55 PM,53.6,32.0,44,30.17,10.0,East,9.2,-,N/A,,Light Drizzle,90,2013-04-03 17:55:00
1:15 PM,51.8,33.8,50,30.17,10.0,ENE,4.6,-,N/A,Rain,Light Rain,70,2013-04-03 18:15:00
1:35 PM,53.6,33.8,47,30.16,10.0,NE,4.6,-,N/A,,Light Drizzle,50,2013-04-03 18:35:00
1:55 PM,53.6,35.6,51,30.15,10.0,ENE,6.9,-,N/A,,Light Drizzle,60,2013-04-03 18:55:00
2:15 PM,53.6,35.6,51,30.15,10.0,ENE,8.1,-,N/A,,Mostly Cloudy,60,2013-04-03 19:15:00
2:35 PM,51.8,33.8,50,30.14,10.0,NE,10.4,16.1,N/A,,Light Drizzle,50,2013-04-03 19:35:00
2:55 PM,51.8,35.6,54,30.13,10.0,NE,11.5,16.1,N/A,,Overcast,40,2013-04-03 19:55:00
3:15 PM,51.8,37.4,58,30.15,10.0,East,6.9,-,N/A,,Drizzle,90,2013-04-03 20:15:00
3:35 PM,50.0,39.2,66,30.13,10.0,NE,5.8,-,N/A,,Drizzle,50,2013-04-03 20:35:00
3:55 PM,50.0,41.0,71,30.13,10.0,NE,6.9,-,N/A,,Light Drizzle,40,2013-04-03 20:55:00
4:15 PM,50.0,41.0,71,30.12,10.0,NE,9.2,-,N/A,,Light Drizzle,40,2013-04-03 21:15:00
4:35 PM,50.0,39.2,66,30.12,10.0,NE,10.4,-,N/A,,Light Drizzle,50,2013-04-03 21:35:00
4:55 PM,48.2,41.0,76,30.12,10.0,NE,9.2,-,N/A,Rain,Light Rain,40,2013-04-03 21:55:00
5:15 PM,46.4,42.8,87,30.12,7.0,NNE,8.1,-,0.01,Rain,Light Rain,30,2013-04-03 22:15:00
5:35 PM,46.4,42.8,87,30.12,7.0,NE,5.8,-,0.03,Rain,Light Rain,40,2013-04-03 22:35:00
5:55 PM,46.4,44.6,93,30.12,7.0,NE,6.9,-,0.04,Rain,Light Rain,40,2013-04-03 22:55:00
6:15 PM,46.4,44.6,93,30.12,7.0,NE,5.8,-,0.02,Rain,Light Rain,40,2013-04-03 23:15:00
6:35 PM,44.6,44.6,100,30.12,7.0,NE,6.9,-,0.04,Rain,Light Rain,40,2013-04-03 23:35:00
6:55 PM,44.6,44.6,100,30.13,7.0,ENE,5.8,-,0.07,Rain,Light Rain,60,2013-04-03 23:55:00
7:15 PM,44.6,44.6,100,30.13,7.0,ENE,4.6,-,0.02,Rain,Light Rain,70,2013-04-04 00:15:00
7:35 PM,44.6,44.6,100,30.13,7.0,ENE,5.8,-,0.04,Rain,Light Rain,60,2013-04-04 00:35:00
7:55 PM,44.6,44.6,100,30.12,10.0,ENE,5.8,-,0.06,Rain,Light Rain,70,2013-04-04 00:55:00
8:15 PM,44.6,44.6,100,30.11,10.0,ENE,9.2,20.7,0.01,Rain,Light Rain,60,2013-04-04 01:15:00
8:35 PM,44.6,44.6,100,30.10,10.0,ENE,10.4,18.4,0.01,Rain,Rain,70,2013-04-04 01:35:00
8:55 PM,44.6,44.6,100,30.11,10.0,ENE,10.4,17.3,0.02,,Drizzle,70,2013-04-04 01:55:00
9:15 PM,44.6,44.6,100,30.13,10.0,East,10.4,-,N/A,,Drizzle,80,2013-04-04 02:15:00
9:35 PM,44.6,44.6,100,30.12,10.0,East,9.2,-,N/A,Rain,Light Rain,80,2013-04-04 02:35:00
9:55 PM,44.6,44.6,100,30.12,10.0,East,13.8,18.4,N/A,,Light Drizzle,90,2013-04-04 02:55:00
10:15 PM,44.6,44.6,100,30.11,10.0,East,11.5,19.6,N/A,,Light Drizzle,80,2013-04-04 03:15:00
10:35 PM,44.6,44.6,100,30.11,10.0,East,9.2,17.3,N/A,,Drizzle,90,2013-04-04 03:35:00
10:55 PM,44.6,44.6,100,30.11,10.0,East,10.4,17.3,0.01,,Drizzle,90,2013-04-04 03:55:00
11:15 PM,44.6,44.6,100,30.10,10.0,East,9.2,-,N/A,,Drizzle,90,2013-04-04 04:15:00
11:35 PM,44.6,44.6,100,30.10,10.0,East,10.4,-,0.01,Rain,Light Rain,90,2013-04-04 04:35:00
11:55 PM,44.6,44.6,100,30.10,7.0,East,12.7,18.4,0.03,Rain,Light Rain,80,2013-04-04 04:55:00